Time,TemperatureF,DewpointF,PressureIn,WindDirection,WindDirectionDegrees,WindSpeedMPH,WindSpeedGustMPH,Humidity,HourlyPrecipIn,Conditions,Clouds,dailyrainin,SoftwareType,DateUTC
2013-03-30 00:00:00,57.2,42.1,30.24,SE,136,0.0,1.0,57,0.00,CLR,CLR,0.00,WeatherDisplay:10.37,2013-03-30 04:00:00,
2013-03-30 00:05:00,56.8,42.2,30.24,SE,144,0.0,1.0,58,0.00,CLR,CLR,0.00,WeatherDisplay:10.37,2013-03-30 04:05:00,
2013-03-30 00:10:00,56.5,42.8,30.24,SE,141,1.0,2.0,60,0.00,CLR,CLR,0.00,WeatherDisplay:10.37,2013-03-30 04:10:00,
2013-03-30 00:15:00,56.5,42.8,30.24,SE,134,1.0,2.0,60,0.00,CLR,CLR,0.00,WeatherDisplay:10.37,2013-03-30 04:15:00,
2013-03-30 00:20:00,56.3,43.0,30.24,SE,137,1.0,2.0,61,0.00,CLR,CLR,0.00,WeatherDisplay:10.37,2013-03-30 04:20:00,
2013-03-30 00:25:00,56.3,43.0,30.24,SSE,150,1.0,1.0,61,0.00,CLR,CLR,0.00,WeatherDisplay:10.37,2013-03-30 04:25:00,
2013-03-30 00:30:00,56.3,43.9,30.24,South,178,1.0,2.0,63,0.00,CLR,CLR,0.00,WeatherDisplay:10.37,2013-03-30 04:30:00,
2013-03-30 00:40:00,55.8,43.3,30.24,SW,225,1.0,2.0,63,0.00,CLR,CLR,0.00,WeatherDisplay:10.37,2013-03-30 04:40:00,
2013-03-30 00:45:00,55.4,43.5,30.24,WSW,246,2.0,2.0,64,0.00,CLR,CLR,0.00,WeatherDisplay:10.37,2013-03-30 04:45:00,
2013-03-30 00:50:00,54.9,43.8,30.24,West,265,2.0,3.0,66,0.00,CLR,CLR,0.00,WeatherDisplay:10.37,2013-03-30 04:50:00,
2013-03-30 00:55:00,54.5,43.3,30.24,West,261,2.0,5.0,66,0.00,CLR,CLR,0.00,WeatherDisplay:10.37,2013-03-30 04:55:00,
2013-03-30 01:00:00,54.3,43.2,30.24,WSW,256,2.0,2.0,66,0.00,CLR,CLR,0.00,WeatherDisplay:10.37,2013-03-30 05:00:00,
2013-03-30 01:05:00,54.8,43.6,30.24,WSW,258,2.0,3.0,66,0.00,CLR,CLR,0.00,WeatherDisplay:10.37,2013-03-30 05:05:00,
2013-03-30 01:10:00,54.9,43.7,30.24,WSW,256,1.0,2.0,66,0.00,CLR,CLR,0.00,WeatherDisplay:10.37,2013-03-30 05:10:00,
2013-03-30 01:15:00,54.7,43.5,30.24,WSW,248,2.0,2.0,66,0.00,CLR,CLR,0.00,WeatherDisplay:10.37,2013-03-30 05:15:00,
2013-03-30 01:20:00,54.9,43.7,30.24,WSW,248,1.0,2.0,66,0.00,CLR,CLR,0.00,WeatherDisplay:10.37,2013-03-30 05:20:00,
2013-03-30 01:30:00,54.7,43.9,30.24,WSW,248,0.0,1.0,67,0.00,CLR,CLR,0.00,WeatherDisplay:10.37,2013-03-30 05:30:00,
2013-03-30 01:35:00,54.0,43.2,30.24,WSW,248,0.0,1.0,67,0.00,CLR,CLR,0.00,WeatherDisplay:10.37,2013-03-30 05:35:00,
2013-03-30 01:40:00,53.6,43.3,30.24,WSW,248,0.0,1.0,68,0.00,CLR,CLR,0.00,WeatherDisplay:10.37,2013-03-30 05:40:00,
2013-03-30 01:50:00,53.4,44.2,30.24,WSW,248,0.0,1.0,71,0.00,CLR,CLR,0.00,WeatherDisplay:10.37,2013-03-30 05:50:00,
2013-03-30 01:55:00,53.6,44.4,30.24,WSW,248,0.0,1.0,71,0.00,CLR,CLR,0.00,WeatherDisplay:10.37,2013-03-30 05:55:00,
2013-03-30 02:05:00,53.6,45.2,30.24,WSW,248,1.0,1.0,73,0.00,CLR,CLR,0.00,WeatherDisplay:10.37,2013-03-30 06:05:00,
2013-03-30 02:10:00,53.8,45.4,30.24,WSW,248,1.0,1.0,73,0.00,CLR,CLR,0.00,WeatherDisplay:10.37,2013-03-30 06:10:00,
2013-03-30 02:15:00,54.1,45.7,30.24,WSW,255,1.0,1.0,73,0.00,CLR,CLR,0.00,WeatherDisplay:10.37,2013-03-30 06:15:00,
2013-03-30 02:20:00,53.9,44.3,30.24,WNW,299,1.0,1.0,70,0.00,CLR,CLR,0.00,WeatherDisplay:10.37,2013-03-30 06:20:00,
2013-03-30 02:25:00,53.7,44.9,30.24,NNW,338,1.0,2.0,72,0.00,CLR,CLR,0.00,WeatherDisplay:10.37,2013-03-30 06:25:00,
2013-03-30 02:35:00,54.3,44.7,30.23,NNW,338,0.0,2.0,70,0.00,CLR,CLR,0.00,WeatherDisplay:10.37,2013-03-30 06:35:00,
2013-03-30 02:40:00,53.7,44.5,30.23,NNW,338,0.0,0.0,71,0.00,CLR,CLR,0.00,WeatherDisplay:10.37,2013-03-30 06:40:00,
2013-03-30 02:50:00,53.0,44.6,30.24,NNW,338,0.0,0.0,73,0.00,CLR,CLR,0.00,WeatherDisplay:10.37,2013-03-30 06:50:00,
2013-03-30 03:00:00,53.2,45.2,30.23,NNW,338,0.0,1.0,74,0.00,CLR,CLR,0.00,WeatherDisplay:10.37,2013-03-30 07:00:00,
2013-03-30 03:05:00,53.2,45.9,30.23,NNW,338,2.0,2.0,76,0.00,CLR,CLR,0.00,WeatherDisplay:10.37,2013-03-30 07:05:00,
2013-03-30 03:10:00,53.2,45.9,30.23,North,351,0.0,2.0,76,0.00,CLR,CLR,0.00,WeatherDisplay:10.37,2013-03-30 07:10:00,
2013-03-30 03:15:00,53.2,46.6,30.23,North,360,1.0,2.0,78,0.00,CLR,CLR,0.00,WeatherDisplay:10.37,2013-03-30 07:15:00,
2013-03-30 03:20:00,53.2,46.5,30.22,North,0,0.0,1.0,78,0.00,CLR,CLR,0.00,WeatherDisplay:10.37,2013-03-30 07:20:00,
2013-03-30 03:25:00,52.8,45.5,30.22,North,0,0.0,0.0,76,0.00,CLR,CLR,0.00,WeatherDisplay:10.37,2013-03-30 07:25:00,
2013-03-30 03:30:00,52.4,45.4,30.22,North,0,0.0,1.0,77,0.00,CLR,CLR,0.00,WeatherDisplay:10.37,2013-03-30 07:30:00,
2013-03-30 03:35:00,52.2,45.5,30.21,North,0,0.0,0.0,78,0.00,CLR,CLR,0.00,WeatherDisplay:10.37,2013-03-30 07:35:00,
2013-03-30 03:40:00,52.2,46.5,30.22,North,0,0.0,0.0,81,0.00,CLR,CLR,0.00,WeatherDisplay:10.37,2013-03-30 07:40:00,
2013-03-30 03:50:00,52.0,46.3,30.22,North,0,0.0,0.0,81,0.00,CLR,CLR,0.00,WeatherDisplay:10.37,2013-03-30 07:50:00,
2013-03-30 04:00:00,51.4,45.8,30.22,North,0,0.0,0.0,81,0.00,CLR,CLR,0.00,WeatherDisplay:10.37,2013-03-30 08:00:00,
2013-03-30 04:05:00,51.4,46.1,30.22,North,0,0.0,1.0,82,0.00,CLR,CLR,0.00,WeatherDisplay:10.37,2013-03-30 08:05:00,
2013-03-30 04:10:00,51.4,45.8,30.22,North,0,0.0,0.0,81,0.00,CLR,CLR,0.00,WeatherDisplay:10.37,2013-03-30 08:10:00,
2013-03-30 04:15:00,51.6,46.9,30.22,North,0,0.0,0.0,84,0.00,CLR,CLR,0.00,WeatherDisplay:10.37,2013-03-30 08:15:00,
2013-03-30 04:20:00,51.5,45.6,30.22,North,0,0.0,0.0,80,0.00,CLR,CLR,0.00,WeatherDisplay:10.37,2013-03-30 08:20:00,
2013-03-30 04:30:00,51.2,44.6,30.22,North,0,0.0,0.0,78,0.00,CLR,CLR,0.00,WeatherDisplay:10.37,2013-03-30 08:30:00,
2013-03-30 04:35:00,50.9,44.6,30.21,North,0,0.0,0.0,79,0.00,CLR,CLR,0.00,WeatherDisplay:10.37,2013-03-30 08:35:00,
2013-03-30 04:40:00,51.2,45.2,30.22,North,0,0.0,0.0,80,0.00,CLR,CLR,0.00,WeatherDisplay:10.37,2013-03-30 08:40:00,
2013-03-30 04:45:00,51.6,45.3,30.22,North,0,0.0,0.0,79,0.00,CLR,CLR,0.00,WeatherDisplay:10.37,2013-03-30 08:45:00,
2013-03-30 04:50:00,51.5,44.9,30.21,North,0,0.0,0.0,78,0.00,CLR,CLR,0.00,WeatherDisplay:10.37,2013-03-30 08:50:00,
2013-03-30 04:55:00,51.2,44.2,30.21,North,0,0.0,0.0,77,0.00,CLR,CLR,0.00,WeatherDisplay:10.37,2013-03-30 08:55:00,
2013-03-30 05:00:00,51.1,44.5,30.21,North,0,0.0,0.0,78,0.00,CLR,CLR,0.00,WeatherDisplay:10.37,2013-03-30 09:00:00,
2013-03-30 05:05:00,51.1,44.5,30.21,North,0,0.0,0.0,78,0.00,CLR,CLR,0.00,WeatherDisplay:10.37,2013-03-30 09:05:00,
2013-03-30 05:10:00,51.0,44.4,30.21,North,0,0.0,0.0,78,0.00,CLR,CLR,0.00,WeatherDisplay:10.37,2013-03-30 09:10:00,
2013-03-30 05:15:00,50.7,44.4,30.21,North,0,0.0,0.0,79,0.00,CLR,CLR,0.00,WeatherDisplay:10.37,2013-03-30 09:15:00,
2013-03-30 05:25:00,50.5,44.9,30.21,North,0,0.0,0.0,81,0.00,CLR,CLR,0.00,WeatherDisplay:10.37,2013-03-30 09:25:00,
2013-03-30 05:30:00,50.5,45.2,30.21,North,0,0.0,0.0,82,0.00,CLR,CLR,0.00,WeatherDisplay:10.37,2013-03-30 09:30:00,
2013-03-30 05:35:00,50.2,44.6,30.21,North,0,0.0,0.0,81,0.00,CLR,CLR,0.00,WeatherDisplay:10.37,2013-03-30 09:35:00,
2013-03-30 05:40:00,49.9,44.0,30.21,North,0,0.0,0.0,80,0.00,CLR,CLR,0.00,WeatherDisplay:10.37,2013-03-30 09:40:00,
2013-03-30 05:45:00,49.5,43.5,30.21,North,0,0.0,0.0,80,0.00,CLR,CLR,0.00,WeatherDisplay:10.37,2013-03-30 09:45:00,
2013-03-30 05:55:00,50.4,45.8,30.20,ENE,66,2.0,2.0,84,0.00,CLR,CLR,0.00,WeatherDisplay:10.37,2013-03-30 09:55:00,
2013-03-30 06:00:00,50.9,45.6,30.20,ESE,110,1.0,2.0,82,0.00,CLR,CLR,0.00,WeatherDisplay:10.37,2013-03-30 10:00:00,
2013-03-30 06:05:00,51.1,45.8,30.20,ESE,112,1.0,1.0,82,0.00,CLR,CLR,0.00,WeatherDisplay:10.37,2013-03-30 10:05:00,
2013-03-30 06:10:00,51.1,45.8,30.20,ESE,112,1.0,1.0,82,0.00,CLR,CLR,0.00,WeatherDisplay:10.37,2013-03-30 10:10:00,
2013-03-30 06:15:00,51.1,45.8,30.20,ESE,112,1.0,1.0,82,0.00,CLR,CLR,0.00,WeatherDisplay:10.37,2013-03-30 10:15:00,
2013-03-30 06:20:00,50.7,45.4,30.20,ESE,112,0.0,1.0,82,0.00,CLR,CLR,0.00,WeatherDisplay:10.37,2013-03-30 10:20:00,
2013-03-30 06:25:00,50.1,44.9,30.20,ESE,112,0.0,0.0,82,0.00,CLR,CLR,0.00,WeatherDisplay:10.37,2013-03-30 10:25:00,
2013-03-30 06:30:00,50.0,45.0,30.20,ESE,112,0.0,0.0,83,0.00,CLR,CLR,0.00,WeatherDisplay:10.37,2013-03-30 10:30:00,
2013-03-30 06:35:00,50.0,45.0,30.20,ESE,112,0.0,0.0,83,0.00,CLR,CLR,0.00,WeatherDisplay:10.37,2013-03-30 10:35:00,
2013-03-30 06:40:00,49.7,44.4,30.20,ESE,112,0.0,0.0,82,0.00,CLR,CLR,0.00,WeatherDisplay:10.37,2013-03-30 10:40:00,
2013-03-30 06:45:00,49.6,44.6,30.20,ESE,112,0.0,0.0,83,0.00,CLR,CLR,0.00,WeatherDisplay:10.37,2013-03-30 10:45:00,
2013-03-30 06:50:00,49.5,44.2,30.21,ESE,112,0.0,0.0,82,0.00,CLR,CLR,0.00,WeatherDisplay:10.37,2013-03-30 10:50:00,
2013-03-30 06:55:00,49.7,44.7,30.21,ESE,112,0.0,0.0,83,0.00,CLR,CLR,0.00,WeatherDisplay:10.37,2013-03-30 10:55:00,
2013-03-30 07:00:00,50.0,45.4,30.21,ESE,112,0.0,0.0,84,0.00,CLR,CLR,0.00,WeatherDisplay:10.37,2013-03-30 11:00:00,
2013-03-30 07:05:00,50.2,45.8,30.21,ESE,112,0.0,0.0,85,0.00,CLR,CLR,0.00,WeatherDisplay:10.37,2013-03-30 11:05:00,
2013-03-30 07:15:00,50.4,45.7,30.22,SSE,151,0.0,1.0,84,0.00,CLR,CLR,0.00,WeatherDisplay:10.37,2013-03-30 11:15:00,
2013-03-30 07:20:00,50.4,45.7,30.22,SSE,158,0.0,0.0,84,0.00,CLR,CLR,0.00,WeatherDisplay:10.37,2013-03-30 11:20:00,
2013-03-30 07:30:00,50.2,45.3,30.22,SSE,158,0.0,0.0,83,0.00,CLR,CLR,0.00,WeatherDisplay:10.37,2013-03-30 11:30:00,
2013-03-30 07:40:00,51.0,46.3,30.23,SSE,158,0.0,0.0,84,0.00,CLR,CLR,0.00,WeatherDisplay:10.37,2013-03-30 11:40:00,
2013-03-30 07:45:00,51.5,46.9,30.23,SSE,158,0.0,0.0,84,0.00,CLR,CLR,0.00,WeatherDisplay:10.37,2013-03-30 11:45:00,
2013-03-30 07:50:00,52.2,47.5,30.23,SSE,158,0.0,0.0,84,0.00,CLR,CLR,0.00,WeatherDisplay:10.37,2013-03-30 11:50:00,
2013-03-30 08:00:00,54.4,49.0,30.23,SSE,158,0.0,0.0,82,0.00,CLR,CLR,0.00,WeatherDisplay:10.37,2013-03-30 12:00:00,
2013-03-30 08:05:00,55.7,49.9,30.23,SSE,158,0.0,0.0,81,0.00,CLR,CLR,0.00,WeatherDisplay:10.37,2013-03-30 12:05:00,
2013-03-30 08:10:00,56.7,50.2,30.24,SSE,158,0.0,0.0,79,0.00,CLR,CLR,0.00,WeatherDisplay:10.37,2013-03-30 12:10:00,
2013-03-30 08:15:00,57.5,50.0,30.24,SSE,158,0.0,0.0,76,0.00,CLR,CLR,0.00,WeatherDisplay:10.37,2013-03-30 12:15:00,
2013-03-30 08:20:00,57.9,48.6,30.24,SSE,158,0.0,0.0,71,0.00,CLR,CLR,0.00,WeatherDisplay:10.37,2013-03-30 12:20:00,
2013-03-30 08:30:00,59.4,48.8,30.24,SSE,163,1.0,1.0,68,0.00,CLR,CLR,0.00,WeatherDisplay:10.37,2013-03-30 12:30:00,
2013-03-30 08:40:00,59.4,48.4,30.24,SSW,210,1.0,2.0,67,0.00,CLR,CLR,0.00,WeatherDisplay:10.37,2013-03-30 12:40:00,
2013-03-30 08:45:00,60.1,49.1,30.24,SSW,207,1.0,2.0,67,0.00,CLR,CLR,0.00,WeatherDisplay:10.37,2013-03-30 12:45:00,
2013-03-30 08:50:00,61.2,49.3,30.24,SSW,196,2.0,3.0,65,0.00,CLR,CLR,0.00,WeatherDisplay:10.37,2013-03-30 12:50:00,
2013-03-30 09:00:00,62.5,50.6,30.24,SSW,201,0.0,2.0,65,0.00,CLR,CLR,0.00,WeatherDisplay:10.37,2013-03-30 13:00:00,
2013-03-30 09:05:00,63.3,50.9,30.24,South,172,2.0,3.0,64,0.00,CLR,CLR,0.00,WeatherDisplay:10.37,2013-03-30 13:05:00,
2013-03-30 09:15:00,63.7,50.0,30.24,South,187,5.0,5.0,61,0.00,CLR,CLR,0.00,WeatherDisplay:10.37,2013-03-30 13:15:00,
2013-03-30 09:20:00,63.6,49.9,30.24,SSW,192,2.0,5.0,61,0.00,FEW,FEW,0.00,WeatherDisplay:10.37,2013-03-30 13:20:00,
2013-03-30 09:25:00,64.1,50.4,30.24,SSW,193,2.0,5.0,61,0.00,FEW,FEW,0.00,WeatherDisplay:10.37,2013-03-30 13:25:00,
2013-03-30 09:30:00,64.9,50.7,30.25,SSW,202,3.0,5.0,60,0.00,FEW,FEW,0.00,WeatherDisplay:10.37,2013-03-30 13:30:00,
2013-03-30 09:40:00,65.5,50.3,30.25,South,184,6.0,7.0,58,0.00,FEW,FEW,0.00,WeatherDisplay:10.37,2013-03-30 13:40:00,
2013-03-30 09:50:00,66.2,50.5,30.25,South,182,3.0,7.0,57,0.00,FEW,FEW,0.00,WeatherDisplay:10.37,2013-03-30 13:50:00,
2013-03-30 10:00:00,66.6,50.4,30.25,SSW,193,5.0,8.0,56,0.00,FEW,FEW,0.00,WeatherDisplay:10.37,2013-03-30 14:00:00,
2013-03-30 10:10:00,67.3,51.0,30.25,South,189,5.0,9.0,56,0.00,FEW,FEW,0.00,WeatherDisplay:10.37,2013-03-30 14:10:00,
2013-03-30 10:20:00,68.0,51.2,30.25,SSW,210,5.0,8.0,55,0.00,FEW,FEW,0.00,WeatherDisplay:10.37,2013-03-30 14:20:00,
2013-03-30 10:30:00,67.6,51.3,30.25,SSW,199,6.0,9.0,56,0.00,FEW,FEW,0.00,WeatherDisplay:10.37,2013-03-30 14:30:00,
2013-03-30 10:35:00,68.0,51.2,30.25,SSW,192,6.0,8.0,55,0.00,FEW,FEW,0.00,WeatherDisplay:10.37,2013-03-30 14:35:00,
2013-03-30 10:40:00,68.4,51.1,30.25,SSW,193,7.0,10.0,54,0.00,FEW,FEW,0.00,WeatherDisplay:10.37,2013-03-30 14:40:00,
2013-03-30 10:45:00,68.2,51.4,30.25,SSW,203,6.0,9.0,55,0.00,FEW,FEW,0.00,WeatherDisplay:10.37,2013-03-30 14:45:00,
2013-03-30 10:50:00,68.9,51.0,30.25,SSW,202,6.0,8.0,53,0.00,FEW,FEW,0.00,WeatherDisplay:10.37,2013-03-30 14:50:00,
2013-03-30 11:00:00,69.4,51.0,30.24,SSW,211,7.0,9.0,52,0.00,FEW,FEW,0.00,WeatherDisplay:10.37,2013-03-30 15:00:00,
2013-03-30 11:05:00,69.8,51.4,30.24,SSW,197,5.0,9.0,52,0.00,SCT,SCT,0.00,WeatherDisplay:10.37,2013-03-30 15:05:00,
2013-03-30 11:10:00,69.8,51.4,30.24,South,185,3.0,7.0,52,0.00,SCT,SCT,0.00,WeatherDisplay:10.37,2013-03-30 15:10:00,
2013-03-30 11:20:00,70.8,50.1,30.23,SSW,206,8.0,13.0,48,0.00,SCT,SCT,0.00,WeatherDisplay:10.37,2013-03-30 15:20:00,
2013-03-30 11:30:00,71.0,51.4,30.23,South,188,3.0,7.0,50,0.00,SCT,SCT,0.00,WeatherDisplay:10.37,2013-03-30 15:30:00,
2013-03-30 11:40:00,71.6,49.1,30.23,SSE,157,6.0,13.0,45,0.00,SCT,SCT,0.00,WeatherDisplay:10.37,2013-03-30 15:40:00,
2013-03-30 11:45:00,71.6,49.1,30.23,South,175,3.0,7.0,45,0.00,SCT,SCT,0.00,WeatherDisplay:10.37,2013-03-30 15:45:00,
2013-03-30 11:50:00,71.4,48.3,30.23,South,180,8.0,10.0,44,0.00,SCT,SCT,0.00,WeatherDisplay:10.37,2013-03-30 15:50:00,
2013-03-30 11:55:00,71.6,47.9,30.23,South,174,5.0,8.0,43,0.00,SCT,SCT,0.00,WeatherDisplay:10.37,2013-03-30 15:55:00,
2013-03-30 12:00:00,72.1,49.0,30.23,SSE,160,8.0,10.0,44,0.00,SCT,SCT,0.00,WeatherDisplay:10.37,2013-03-30 16:00:00,
2013-03-30 12:05:00,71.9,48.8,30.23,SSE,167,3.0,7.0,44,0.00,SCT,SCT,0.00,WeatherDisplay:10.37,2013-03-30 16:05:00,
2013-03-30 12:10:00,72.3,47.3,30.23,South,173,6.0,8.0,41,0.00,SCT,SCT,0.00,WeatherDisplay:10.37,2013-03-30 16:10:00,
2013-03-30 12:15:00,72.0,47.0,30.23,South,181,7.0,9.0,41,0.00,SCT,SCT,0.00,WeatherDisplay:10.37,2013-03-30 16:15:00,
2013-03-30 12:20:00,72.6,48.2,30.23,South,188,6.0,9.0,42,0.00,SCT,SCT,0.00,WeatherDisplay:10.37,2013-03-30 16:20:00,
2013-03-30 12:30:00,73.0,48.6,30.22,South,180,3.0,9.0,42,0.00,SCT,SCT,0.00,WeatherDisplay:10.37,2013-03-30 16:30:00,
2013-03-30 12:35:00,73.6,48.4,30.22,South,177,6.0,10.0,41,0.00,SCT,SCT,0.00,WeatherDisplay:10.37,2013-03-30 16:35:00,
2013-03-30 12:40:00,73.4,47.6,30.22,SSE,163,7.0,8.0,40,0.00,SCT,SCT,0.00,WeatherDisplay:10.37,2013-03-30 16:40:00,
2013-03-30 12:45:00,74.0,48.8,30.22,SSE,167,3.0,9.0,41,0.00,SCT,SCT,0.00,WeatherDisplay:10.37,2013-03-30 16:45:00,
2013-03-30 12:50:00,74.5,47.9,30.22,SSE,157,5.0,9.0,39,0.00,SCT,SCT,0.00,WeatherDisplay:10.37,2013-03-30 16:50:00,
2013-03-30 12:55:00,74.7,49.4,30.22,South,173,6.0,8.0,41,0.00,SCT,SCT,0.00,WeatherDisplay:10.37,2013-03-30 16:55:00,
2013-03-30 13:00:00,74.1,49.6,30.21,SSW,203,5.0,8.0,42,0.00,SCT,SCT,0.00,WeatherDisplay:10.37,2013-03-30 17:00:00,
2013-03-30 13:10:00,73.0,49.8,30.21,SSW,198,3.0,7.0,44,0.00,FEW,FEW,0.00,WeatherDisplay:10.37,2013-03-30 17:10:00,
2013-03-30 13:20:00,74.3,49.8,30.20,SSW,197,5.0,9.0,42,0.00,FEW,FEW,0.00,WeatherDisplay:10.37,2013-03-30 17:20:00,
2013-03-30 13:25:00,74.5,49.9,30.20,SSW,212,5.0,6.0,42,0.00,FEW,FEW,0.00,WeatherDisplay:10.37,2013-03-30 17:25:00,
2013-03-30 13:35:00,74.1,48.2,30.20,SSW,192,8.0,12.0,40,0.00,FEW,FEW,0.00,WeatherDisplay:10.37,2013-03-30 17:35:00,
2013-03-30 13:40:00,73.7,48.5,30.20,SSW,208,7.0,12.0,41,0.00,FEW,FEW,0.00,WeatherDisplay:10.37,2013-03-30 17:40:00,
2013-03-30 13:45:00,73.9,47.4,30.20,SSW,210,6.0,12.0,39,0.00,FEW,FEW,0.00,WeatherDisplay:10.37,2013-03-30 17:45:00,
2013-03-30 13:50:00,74.1,46.2,30.19,SSW,195,7.0,13.0,37,0.00,FEW,FEW,0.00,WeatherDisplay:10.37,2013-03-30 17:50:00,
2013-03-30 13:55:00,74.5,46.5,30.19,South,178,3.0,7.0,37,0.00,FEW,FEW,0.00,WeatherDisplay:10.37,2013-03-30 17:55:00,
2013-03-30 14:00:00,74.1,46.2,30.19,SSW,196,5.0,10.0,37,0.00,FEW,FEW,0.00,WeatherDisplay:10.37,2013-03-30 18:00:00,
2013-03-30 14:10:00,74.6,42.8,30.19,South,189,6.0,8.0,32,0.00,FEW,FEW,0.00,WeatherDisplay:10.37,2013-03-30 18:10:00,
2013-03-30 14:20:00,75.1,43.2,30.18,SSW,201,6.0,10.0,32,0.00,FEW,FEW,0.00,WeatherDisplay:10.37,2013-03-30 18:20:00,
2013-03-30 14:25:00,75.7,44.5,30.18,SSW,194,3.0,8.0,33,0.00,FEW,FEW,0.00,WeatherDisplay:10.37,2013-03-30 18:25:00,
2013-03-30 14:30:00,75.9,43.9,30.17,SSE,160,3.0,8.0,32,0.00,FEW,FEW,0.00,WeatherDisplay:10.37,2013-03-30 18:30:00,
2013-03-30 14:35:00,76.1,44.1,30.17,SSE,167,8.0,9.0,32,0.00,FEW,FEW,0.00,WeatherDisplay:10.37,2013-03-30 18:35:00,
2013-03-30 14:40:00,75.6,44.5,30.17,South,169,3.0,8.0,33,0.00,FEW,FEW,0.00,WeatherDisplay:10.37,2013-03-30 18:40:00,
2013-03-30 14:45:00,75.9,44.0,30.17,South,184,3.0,7.0,32,0.00,FEW,FEW,0.00,WeatherDisplay:10.37,2013-03-30 18:45:00,
2013-03-30 14:50:00,76.0,44.8,30.16,SW,225,2.0,6.0,33,0.00,FEW,FEW,0.00,WeatherDisplay:10.37,2013-03-30 18:50:00,
2013-03-30 15:00:00,76.6,45.4,30.16,SSW,201,6.0,9.0,33,0.00,FEW,FEW,0.00,WeatherDisplay:10.37,2013-03-30 19:00:00,
2013-03-30 15:05:00,76.6,45.3,30.16,SSW,198,3.0,7.0,33,0.00,FEW,FEW,0.00,WeatherDisplay:10.37,2013-03-30 19:05:00,
2013-03-30 15:10:00,76.9,46.4,30.16,SSE,162,2.0,6.0,34,0.00,FEW,FEW,0.00,WeatherDisplay:10.37,2013-03-30 19:10:00,
2013-03-30 15:15:00,77.5,46.9,30.16,SE,125,0.0,5.0,34,0.00,FEW,FEW,0.00,WeatherDisplay:10.37,2013-03-30 19:15:00,
2013-03-30 15:20:00,78.4,46.9,30.16,South,182,3.0,6.0,33,0.00,FEW,FEW,0.00,WeatherDisplay:10.37,2013-03-30 19:20:00,
2013-03-30 15:25:00,77.0,45.7,30.15,South,184,5.0,9.0,33,0.00,FEW,FEW,0.00,WeatherDisplay:10.37,2013-03-30 19:25:00,
2013-03-30 15:30:00,76.8,46.3,30.15,SSW,203,1.0,8.0,34,0.00,FEW,FEW,0.00,WeatherDisplay:10.37,2013-03-30 19:30:00,
2013-03-30 15:35:00,77.5,46.9,30.15,SSW,210,3.0,7.0,34,0.00,FEW,FEW,0.00,WeatherDisplay:10.37,2013-03-30 19:35:00,
2013-03-30 15:40:00,77.9,46.5,30.14,SSW,212,5.0,6.0,33,0.00,FEW,FEW,0.00,WeatherDisplay:10.37,2013-03-30 19:40:00,
2013-03-30 15:50:00,77.3,46.7,30.13,SSW,200,3.0,9.0,34,0.00,FEW,FEW,0.00,WeatherDisplay:10.37,2013-03-30 19:50:00,
2013-03-30 15:55:00,77.8,46.4,30.13,SSW,204,7.0,9.0,33,0.00,FEW,FEW,0.00,WeatherDisplay:10.37,2013-03-30 19:55:00,
2013-03-30 16:00:00,77.3,47.5,30.13,SSW,203,7.0,10.0,35,0.00,FEW,FEW,0.00,WeatherDisplay:10.37,2013-03-30 20:00:00,
2013-03-30 16:05:00,77.2,47.4,30.13,SSW,197,6.0,10.0,35,0.00,FEW,FEW,0.00,WeatherDisplay:10.37,2013-03-30 20:05:00,
2013-03-30 16:10:00,77.8,47.2,30.13,SW,215,8.0,10.0,34,0.00,FEW,FEW,0.00,WeatherDisplay:10.37,2013-03-30 20:10:00,
2013-03-30 16:15:00,78.3,46.8,30.13,SW,216,8.0,10.0,33,0.00,FEW,FEW,0.00,WeatherDisplay:10.37,2013-03-30 20:15:00,
2013-03-30 16:20:00,78.6,46.3,30.13,South,186,6.0,7.0,32,0.00,FEW,FEW,0.00,WeatherDisplay:10.37,2013-03-30 20:20:00,
2013-03-30 16:30:00,78.7,46.4,30.12,SSE,162,9.0,10.0,32,0.00,FEW,FEW,0.00,WeatherDisplay:10.37,2013-03-30 20:30:00,
2013-03-30 16:40:00,78.1,46.7,30.12,SSW,196,5.0,9.0,33,0.00,FEW,FEW,0.00,WeatherDisplay:10.37,2013-03-30 20:40:00,
2013-03-30 16:45:00,78.5,47.0,30.12,South,170,3.0,7.0,33,0.00,FEW,FEW,0.00,WeatherDisplay:10.37,2013-03-30 20:45:00,
2013-03-30 16:50:00,78.2,47.5,30.12,SSE,163,1.0,7.0,34,0.00,FEW,FEW,0.00,WeatherDisplay:10.37,2013-03-30 20:50:00,
2013-03-30 16:55:00,78.3,47.6,30.11,South,170,5.0,9.0,34,0.00,FEW,FEW,0.00,WeatherDisplay:10.37,2013-03-30 20:55:00,
2013-03-30 17:05:00,78.8,47.2,30.11,SSW,194,6.0,10.0,33,0.00,FEW,FEW,0.00,WeatherDisplay:10.37,2013-03-30 21:05:00,
2013-03-30 17:15:00,78.1,47.4,30.11,SSE,160,6.0,9.0,34,0.00,FEW,FEW,0.00,WeatherDisplay:10.37,2013-03-30 21:15:00,
2013-03-30 17:20:00,77.8,46.4,30.11,SSE,153,7.0,10.0,33,0.00,FEW,FEW,0.00,WeatherDisplay:10.37,2013-03-30 21:20:00,
2013-03-30 17:30:00,78.1,46.6,30.11,South,189,5.0,6.0,33,0.00,FEW,FEW,0.00,WeatherDisplay:10.37,2013-03-30 21:30:00,
2013-03-30 17:40:00,77.4,46.8,30.11,South,175,2.0,6.0,34,0.00,FEW,FEW,0.00,WeatherDisplay:10.37,2013-03-30 21:40:00,
2013-03-30 17:50:00,77.0,46.5,30.11,South,181,5.0,5.0,34,0.00,FEW,FEW,0.00,WeatherDisplay:10.37,2013-03-30 21:50:00,
2013-03-30 17:55:00,76.6,46.9,30.11,SSW,201,5.0,5.0,35,0.00,FEW,FEW,0.00,WeatherDisplay:10.37,2013-03-30 21:55:00,
2013-03-30 18:00:00,76.6,46.9,30.11,South,187,5.0,7.0,35,0.00,FEW,FEW,0.00,WeatherDisplay:10.37,2013-03-30 22:00:00,
2013-03-30 18:05:00,76.5,46.8,30.11,South,179,5.0,8.0,35,0.00,SCT,SCT,0.00,WeatherDisplay:10.37,2013-03-30 22:05:00,
2013-03-30 18:15:00,76.5,46.8,30.11,SSW,199,3.0,8.0,35,0.00,SCT,SCT,0.00,WeatherDisplay:10.37,2013-03-30 22:15:00,
2013-03-30 18:20:00,76.3,46.6,30.11,South,186,7.0,9.0,35,0.00,SCT,SCT,0.00,WeatherDisplay:10.37,2013-03-30 22:20:00,
2013-03-30 18:30:00,76.3,47.4,30.11,SSE,162,2.0,5.0,36,0.00,SCT,SCT,0.00,WeatherDisplay:10.37,2013-03-30 22:30:00,
2013-03-30 18:35:00,77.1,47.4,30.11,South,179,2.0,4.0,35,0.00,SCT,SCT,0.00,WeatherDisplay:10.37,2013-03-30 22:35:00,
2013-03-30 18:40:00,77.0,47.2,30.11,South,181,3.0,6.0,35,0.00,SCT,SCT,0.00,WeatherDisplay:10.37,2013-03-30 22:40:00,
2013-03-30 18:45:00,76.1,47.2,30.11,SE,142,5.0,7.0,36,0.00,SCT,SCT,0.00,WeatherDisplay:10.37,2013-03-30 22:45:00,
2013-03-30 18:50:00,75.7,47.6,30.11,SE,136,3.0,6.0,37,0.00,SCT,SCT,0.00,WeatherDisplay:10.37,2013-03-30 22:50:00,
2013-03-30 18:55:00,75.7,47.6,30.11,SSE,149,3.0,5.0,37,0.00,SCT,SCT,0.00,WeatherDisplay:10.37,2013-03-30 22:55:00,
2013-03-30 19:00:00,75.4,48.0,30.11,SSE,157,3.0,5.0,38,0.00,SCT,SCT,0.00,WeatherDisplay:10.37,2013-03-30 23:00:00,
2013-03-30 19:05:00,75.4,48.0,30.11,SSE,153,5.0,6.0,38,0.00,BKN,BKN,0.00,WeatherDisplay:10.37,2013-03-30 23:05:00,
2013-03-30 19:10:00,75.2,47.8,30.11,SSE,152,5.0,6.0,38,0.00,BKN,BKN,0.00,WeatherDisplay:10.37,2013-03-30 23:10:00,
2013-03-30 19:15:00,75.1,47.7,30.11,SSE,148,3.0,6.0,38,0.00,BKN,BKN,0.00,WeatherDisplay:10.37,2013-03-30 23:15:00,
2013-03-30 19:20:00,74.9,47.6,30.11,SSE,149,5.0,6.0,38,0.00,BKN,BKN,0.00,WeatherDisplay:10.37,2013-03-30 23:20:00,
2013-03-30 19:25:00,74.8,48.2,30.12,SSE,154,2.0,6.0,39,0.00,BKN,BKN,0.00,WeatherDisplay:10.37,2013-03-30 23:25:00,
2013-03-30 19:30:00,74.7,48.1,30.12,SSE,153,2.0,5.0,39,0.00,BKN,BKN,0.00,WeatherDisplay:10.37,2013-03-30 23:30:00,
2013-03-30 19:40:00,74.5,47.9,30.12,SSE,155,5.0,6.0,39,0.00,BKN,BKN,0.00,WeatherDisplay:10.37,2013-03-30 23:40:00,
2013-03-30 19:50:00,73.7,51.6,30.12,SE,134,5.0,10.0,46,0.00,BKN,BKN,0.00,WeatherDisplay:10.37,2013-03-30 23:50:00,
2013-03-30 20:00:00,71.8,52.1,30.13,ESE,123,3.0,10.0,50,0.00,BKN,BKN,0.00,WeatherDisplay:10.37,2013-03-31 00:00:00,
2013-03-30 20:10:00,70.8,52.3,30.13,SE,125,2.0,10.0,52,0.00,BKN,BKN,0.00,WeatherDisplay:10.37,2013-03-31 00:10:00,
2013-03-30 20:20:00,70.1,52.2,30.13,SE,134,7.0,15.0,53,0.00,BKN,BKN,0.00,WeatherDisplay:10.37,2013-03-31 00:20:00,
2013-03-30 20:25:00,69.8,51.4,30.13,SE,128,6.0,10.0,52,0.00,BKN,BKN,0.00,WeatherDisplay:10.37,2013-03-31 00:25:00,
2013-03-30 20:30:00,69.4,51.6,30.13,SE,126,5.0,8.0,53,0.00,BKN,BKN,0.00,WeatherDisplay:10.37,2013-03-31 00:30:00,
2013-03-30 20:35:00,69.2,51.4,30.14,SE,139,6.0,12.0,53,0.00,BKN,BKN,0.00,WeatherDisplay:10.37,2013-03-31 00:35:00,
2013-03-30 20:40:00,69.1,51.2,30.14,SE,143,5.0,7.0,53,0.00,BKN,BKN,0.00,WeatherDisplay:10.37,2013-03-31 00:40:00,
2013-03-30 20:45:00,68.7,51.4,30.14,SE,137,6.0,10.0,54,0.00,BKN,BKN,0.00,WeatherDisplay:10.37,2013-03-31 00:45:00,
2013-03-30 20:50:00,68.5,51.2,30.14,SE,136,3.0,8.0,54,0.00,BKN,BKN,0.00,WeatherDisplay:10.37,2013-03-31 00:50:00,
2013-03-30 20:55:00,68.4,51.6,30.14,SSE,147,9.0,10.0,55,0.00,BKN,BKN,0.00,WeatherDisplay:10.37,2013-03-31 00:55:00,
2013-03-30 21:00:00,68.1,51.3,30.15,SSE,155,5.0,8.0,55,0.00,BKN,BKN,0.00,WeatherDisplay:10.37,2013-03-31 01:00:00,
2013-03-30 21:05:00,68.0,51.7,30.16,South,172,2.0,6.0,56,0.00,BKN,BKN,0.00,WeatherDisplay:10.37,2013-03-31 01:05:00,
2013-03-30 21:15:00,67.6,51.9,30.17,WNW,282,3.0,6.0,57,0.00,BKN,BKN,0.00,WeatherDisplay:10.37,2013-03-31 01:15:00,
2013-03-30 21:20:00,67.6,51.9,30.17,WNW,287,2.0,6.0,57,0.00,BKN,BKN,0.00,WeatherDisplay:10.37,2013-03-31 01:20:00,
2013-03-30 21:25:00,67.6,51.9,30.17,West,266,2.0,6.0,57,0.00,BKN,BKN,0.00,WeatherDisplay:10.37,2013-03-31 01:25:00,
2013-03-30 21:35:00,67.4,51.7,30.17,SSW,204,1.0,5.0,57,0.00,BKN,BKN,0.00,WeatherDisplay:10.37,2013-03-31 01:35:00,
2013-03-30 21:40:00,67.1,51.4,30.17,SSE,168,3.0,5.0,57,0.00,BKN,BKN,0.00,WeatherDisplay:10.37,2013-03-31 01:40:00,
2013-03-30 21:45:00,67.3,51.5,30.17,SSE,159,3.0,5.0,57,0.00,BKN,BKN,0.00,WeatherDisplay:10.37,2013-03-31 01:45:00,
2013-03-30 21:50:00,67.3,52.0,30.18,SSE,149,3.0,6.0,58,0.00,BKN,BKN,0.00,WeatherDisplay:10.37,2013-03-31 01:50:00,
2013-03-30 21:55:00,67.1,51.9,30.18,SE,146,6.0,6.0,58,0.00,BKN,BKN,0.00,WeatherDisplay:10.37,2013-03-31 01:55:00,
2013-03-30 22:00:00,67.2,51.9,30.18,SSE,148,5.0,6.0,58,0.00,BKN,BKN,0.00,WeatherDisplay:10.37,2013-03-31 02:00:00,
2013-03-30 22:05:00,66.9,51.7,30.18,SSE,147,3.0,6.0,58,0.00,SCT,SCT,0.00,WeatherDisplay:10.37,2013-03-31 02:05:00,
2013-03-30 22:10:00,66.7,51.5,30.18,SSE,147,3.0,6.0,58,0.00,SCT,SCT,0.00,WeatherDisplay:10.37,2013-03-31 02:10:00,
2013-03-30 22:15:00,66.6,51.8,30.18,SSE,152,2.0,3.0,59,0.00,SCT,SCT,0.00,WeatherDisplay:10.37,2013-03-31 02:15:00,
2013-03-30 22:25:00,66.3,51.5,30.18,SSE,162,2.0,5.0,59,0.00,SCT,SCT,0.00,WeatherDisplay:10.37,2013-03-31 02:25:00,
2013-03-30 22:30:00,66.2,51.4,30.18,SSE,162,2.0,5.0,59,0.00,SCT,SCT,0.00,WeatherDisplay:10.37,2013-03-31 02:30:00,
2013-03-30 22:35:00,66.1,51.8,30.18,SSE,156,2.0,2.0,60,0.00,SCT,SCT,0.00,WeatherDisplay:10.37,2013-03-31 02:35:00,
2013-03-30 22:40:00,65.8,51.6,30.18,SE,142,1.0,2.0,60,0.00,SCT,SCT,0.00,WeatherDisplay:10.37,2013-03-31 02:40:00,
2013-03-30 22:50:00,65.5,51.7,30.18,South,171,2.0,3.0,61,0.00,SCT,SCT,0.00,WeatherDisplay:10.37,2013-03-31 02:50:00,
2013-03-30 22:55:00,65.7,51.8,30.18,SSE,158,3.0,5.0,61,0.00,SCT,SCT,0.00,WeatherDisplay:10.37,2013-03-31 02:55:00,
2013-03-30 23:00:00,65.5,51.7,30.18,SSE,153,2.0,3.0,61,0.00,SCT,SCT,0.00,WeatherDisplay:10.37,2013-03-31 03:00:00,
2013-03-30 23:05:00,65.5,51.7,30.18,SSE,147,2.0,3.0,61,0.00,BKN,BKN,0.00,WeatherDisplay:10.37,2013-03-31 03:05:00,
2013-03-30 23:10:00,65.3,51.9,30.18,SSE,152,2.0,3.0,62,0.00,BKN,BKN,0.00,WeatherDisplay:10.37,2013-03-31 03:10:00,
2013-03-30 23:15:00,65.3,51.9,30.18,SSE,162,3.0,5.0,62,0.00,BKN,BKN,0.00,WeatherDisplay:10.37,2013-03-31 03:15:00,
2013-03-30 23:25:00,65.1,51.8,30.18,SSE,155,2.0,5.0,62,0.00,BKN,BKN,0.00,WeatherDisplay:10.37,2013-03-31 03:25:00,
2013-03-30 23:30:00,64.9,52.0,30.17,SSE,159,2.0,3.0,63,0.00,BKN,BKN,0.00,WeatherDisplay:10.37,2013-03-31 03:30:00,
2013-03-30 23:35:00,64.9,52.0,30.17,SSE,160,2.0,5.0,63,0.00,BKN,BKN,0.00,WeatherDisplay:10.37,2013-03-31 03:35:00,
2013-03-30 23:40:00,64.8,51.9,30.17,SSE,153,2.0,4.0,63,0.00,BKN,BKN,0.00,WeatherDisplay:10.37,2013-03-31 03:40:00,
2013-03-30 23:45:00,64.8,52.3,30.17,SE,146,2.0,5.0,64,0.00,BKN,BKN,0.00,WeatherDisplay:10.37,2013-03-31 03:45:00,
2013-03-30 23:50:00,64.6,52.1,30.17,SSE,152,3.0,5.0,64,0.00,BKN,BKN,0.00,WeatherDisplay:10.37,2013-03-31 03:50:00,
2013-03-30 23:55:00,64.6,52.1,30.17,SSE,156,3.0,5.0,64,0.00,BKN,BKN,0.00,WeatherDisplay:10.37,2013-03-31 03:55:00,